National Oceanic Atmosphere Administration National Weather Service Headquarters National Weather Service Headquarters
NOAA logo WFO Anchorage Scalable transition graphic NWS logo
Transition from title bar to navgation bar   Aviation Weather 22 AKDT 
blankspace Home   |   Mobile   |   Social Media   |   Mesonet   |   Surface Map   |   Radar   |   Submit Storm Reports =06 GMT 

LocalForecast by City, St or Zip Code

spacer

Forecasts/Products
  Public
  Forecast Discussion
    - With Glossary
  Aviation
  Marine
  Hydrology(RFC)
  Rivers & Lakes AHPS
  Ice Desk
  TV Weather
  Fire Weather
  Avalanche
  Travel 511
  Graphical
  xml logo RSS Feeds
  Marine FTPMail

spacer

Data
  Mesonet
  Model Graphics
  Local Model
  Observations
  Marine Obs
  Satellite/Radar
  Vent Factor
  Soaring Index
  Weather Links

spacer

Climate
  PAFC Climate
  Interactive Climate
  PAFC Records
  Local
  National
  More

spacer

Outreach
  About Us
  Community Outreach
  Kids' Page
  Tour/Speaker Request
  Weather Classroom
  Social Media

spacer

Reports
  COOP Observers
  Local Storm Reports
  Spotter Page
  Submit a Storm Report

spacer

Miscellaneous
  Archived Alaska Weather Stories
  Student Career Opportunities
  Research Papers

spacer

Print Friendly/
Low Bandwidth

  Public Forecasts
  Marine Forecasts

spacer

Contact Us
  mailto pafcweb

spacer

Facebook Follow the National Weather Service in Alaska on Twitter
USA.gov is the U.S. government's official web portal to all federal, state and local government web resources and services.


 ICAO ID:   AAWU Graphics

Internet access to TAFs and METAR observations is for planning purposes only. We can not guarantee the timeliness of internet products. Before flying please get a formal pilot briefing (1-800-992-7433) and ALWAYS file a Flight Plan!Pilot briefings are provided to licensed aircraft pilots, ONLY! Others may not use the above number to obtain weather information.

Check out the Key to TAFs and METARs for help with decoding the information.

A 12 hour summary of TAFs can be found here.

PABI TAF
PABI 0312/ 07006KT 9999 SCT040 BKN150 QNH3003INS

 
      TEMPO 0212/0215 4800 BR BKN005 620059
      BECMG 0218/0219 VRB06KT 9999 FEW050 BKN120 QNH3076INS
      TX05/0301Z TNM03/0214Z=


METAR PABI 020553Z AUTO 00000KT 10SM CLR M01/M02 A3020=
METAR PABI 020453Z 08005KT 10SM FEW049 BKN200 00/M02 A3021 RMK AO2
     SLP255 T00001017=
METAR PABI 020353Z 08005KT 10SM FEW049 BKN200 01/M02 A3022 RMK AO2
     SLP259 T00061017=
METAR PABI 020353Z 08005KT 10SM FEW049 BKN200 01/M02 A3022=
METAR PABI 020253Z 08005KT 10SM FEW015 SCT049 BKN200 02/M02 A3023 RMK
     AO2 SLP260 T00171017 56013=
METAR PABI 020253Z 08005KT 10SM FEW015 SCT049 BKN200 02/M02 A3023=


National Weather Service
Anchorage Forecast Office
6930 Sand Lake Road
Anchorage, Ak 99502
(907) 266-5105 M-F/7-5pm
About Us
Career Opportunities
Glossary
Disclaimer
Privacy Policy
Credits
Alaska Weather Information Line:
1-800-472-0391